Location: Solstice Park, West Seattle
(47.5363°N, 122.3905°W)
Time: 08:41:04
(UTC-07:00)

ISS - Pass Details

Date: 16 May 2021
Orbit: 417 x 422 km, 51.6° (Epoch: 18 June)

Event Time Altitude Azimuth Distance (km) Brightness Sun altitude
Rises 01:33:12 0° 288° (WNW) 2,371 0.2 -23.0°
Reaches altitude 10° 01:35:22 10° 295° (WNW) 1,507 -0.8 -22.9°
Maximum altitude 01:38:38 44° 9° (N) 600 -2.6 -22.9°
Drops below altitude 10° 01:41:53 10° 83° (E) 1,507 -0.8 -22.8°
Sets 01:44:03 0° 90° (E) 2,372 0.2 -22.7°
